Beaumont, TX

11:40 PM CDT on April 27, 2017 (GMT -0500)
Southeast Texas Regional

Weather History for KBPT - March, 2014

Change the Weather History Date:

Thursday, March 13, 2014

  Actual Average Record
Temperature  
Mean Temperature 54 °F 61 °F  
Max Temperature 64 °F 71 °F 85 °F (1904)
Min Temperature 44 °F 52 °F 29 °F (1948)
Degree Days  
Heating Degree Days 11 5  
Month to date heating degree days 80  
Since 1 July heating degree days 1293  
Cooling Degree Days 0 2  
Month to date cooling degree days 15  
Year to date cooling degree days 41  
Growing Degree Days 4 (Base 50)    
Moisture  
Dew Point 32 °F    
Average Humidity 46    
Maximum Humidity 77    
Minimum Humidity 15    
Precipitation  
Precipitation 0.00 in 0.10 in 3.08 in (1949)
Month to date precipitation 1.50  
Year to date precipitation 10.34  
Snow  
Snow 0.00 in 0.00 in 0.00 in ()
Month to date snowfall 0.0  
Since 1 July snowfall T  
Snow Depth -    
Sea Level Pressure  
Sea Level Pressure 30.26 in    
Wind  
Wind Speed 9 mph (ESE)    
Max Wind Speed 13 mph    
Max Gust Speed -    
Visibility 10 miles    
Events      
T = Trace of Precipitation, MM = Missing Value Source: NWS Daily Summary

Daily Weather History Graph

Daily Weather History Graph

Search for Another Location

Airport or City:

Trip Planner

Search our weather history database for the weather conditions in past years. The results will help you decide how hot, cold, wet, or windy it might be!

Date:

Astronomy

Mar. 13, 2014 Rise Set
Actual Time 7:28 AM CDT 7:23 PM CDT
Civil Twilight 7:04 AM CDT 7:47 PM CDT
Nautical Twilight 6:36 AM CDT 8:14 PM CDT
Astronomical Twilight 6:08 AM CDT 8:42 PM CDT
Moon 4:58 PM CDT (3/13) 5:25 AM CDT (3/13)
Length of Visible Light 12h 42m
Length of Day
11h 54m
Waxing Gibbous, 91% of the Moon is Illuminated
Mar 13
Waxing Gibbous
Mar 16
Full
Mar 23
Last Quarter
Mar 30
New
Apr 7
First Quarter

Hourly Weather History & Observations

Time (CDT) Temp. Windchill Dew Point Humidity Pressure Visibility Wind Dir Wind Speed Gust Speed Precip Events Conditions
12:53 AM 52.0 °F - 28.9 °F 41% 30.22 in 10.0 mi North 10.4 mph - N/A   Clear
1:53 AM 50.0 °F - 30.9 °F 48% 30.23 in 10.0 mi North 9.2 mph - N/A   Clear
2:53 AM 50.0 °F - 30.0 °F 46% 30.24 in 10.0 mi North 10.4 mph - N/A   Clear
3:53 AM 46.9 °F - 30.0 °F 52% 30.24 in 10.0 mi North 9.2 mph - N/A   Clear
4:53 AM 45.0 °F 40.1 °F 30.0 °F 56% 30.25 in 10.0 mi North 9.2 mph - N/A   Clear
5:53 AM 45.0 °F 40.1 °F 30.0 °F 56% 30.26 in 10.0 mi NNE 9.2 mph - N/A   Clear
6:53 AM 45.0 °F 40.6 °F 30.0 °F 56% 30.28 in 10.0 mi NE 8.1 mph - N/A   Clear
7:53 AM 44.1 °F 40.1 °F 30.9 °F 60% 30.30 in 10.0 mi NE 6.9 mph - N/A   Clear
8:53 AM 50.0 °F - 32.0 °F 50% 30.33 in 10.0 mi East 3.5 mph - N/A   Clear
9:53 AM 57.0 °F - 30.0 °F 36% 30.35 in 10.0 mi East 6.9 mph - N/A   Clear
10:53 AM 60.1 °F - 27.0 °F 28% 30.35 in 10.0 mi East 9.2 mph - N/A   Clear
11:53 AM 62.1 °F - 27.0 °F 26% 30.34 in 10.0 mi Variable 6.9 mph - N/A   Clear
12:53 PM 63.0 °F - 27.0 °F 26% 30.32 in 10.0 mi East 9.2 mph - N/A   Clear
1:53 PM 63.0 °F - 30.0 °F 29% 30.30 in 10.0 mi Variable 4.6 mph - N/A   Clear
2:53 PM 64.0 °F - 33.1 °F 31% 30.28 in 10.0 mi Variable 5.8 mph - N/A   Clear
3:53 PM 63.0 °F - 34.0 °F 34% 30.27 in 10.0 mi South 12.7 mph - N/A   Clear
4:53 PM 59.0 °F - 32.0 °F 36% 30.25 in 10.0 mi South 9.2 mph - N/A   Clear
5:53 PM 59.0 °F - 36.0 °F 42% 30.24 in 10.0 mi South 11.5 mph - N/A   Clear
6:53 PM 57.0 °F - 35.1 °F 44% 30.23 in 10.0 mi South 6.9 mph - N/A   Clear
7:53 PM 50.0 °F - 37.9 °F 63% 30.22 in 10.0 mi South 5.8 mph - N/A   Clear
8:53 PM 48.9 °F - 39.0 °F 69% 30.22 in 10.0 mi South 5.8 mph - N/A   Clear
9:53 PM 48.0 °F - 39.9 °F 74% 30.22 in 10.0 mi South 6.9 mph - N/A   Clear
10:53 PM 46.9 °F - 39.9 °F 77% 30.22 in 10.0 mi South 5.8 mph - N/A   Clear
11:53 PM 48.0 °F - 41.0 °F 77% 30.20 in 10.0 mi South 4.6 mph - N/A   Clear